Location: Cotdoussan
(43.0366°N, 0.0068°E)
Time: 03:52:04
(UTC+00:00)

ARIANE 6 FM1 Upper Stage - Pass Details

Date: 25 January 2026
Orbit: 522 x 609 km, 62.0° (Epoch: 10 February)

Event Time Altitude Azimuth Distance (km) Brightness Sun altitude
Rises 19:09:43 0° 253° (WSW) 2,703 7.5 -23.0°
Reaches altitude 10° 19:12:19 10° 268° (W) 1,799 6.3 -23.5°
Maximum altitude 19:15:31 22° 321° (NW) 1,192 4.6 -24.1°
Enters shadow 19:16:47 19° 348° (NNW) 1,303 4.6 -24.3°
